Kaltag, AK

4:12 AM AKST on February 12, 2016 (GMT -0900)
Kaltag

Weather History for PAKV - November, 2013

Change the Weather History Date:

Tuesday, November 12, 2013

  Actual Average (PAGA) Record (PAGA)
Temperature  
Mean Temperature 20 °F -  
Max Temperature 23 °F 14 °F 44 °F (1967)
Min Temperature 18 °F 1 °F -34 °F (1956)
Degree Days  
Heating Degree Days 44    
Moisture  
Dew Point 18 °F    
Average Humidity 89    
Maximum Humidity 96    
Minimum Humidity 84    
Precipitation  
Precipitation 0.31 in - - ()
Sea Level Pressure  
Sea Level Pressure 30.03 in    
Wind  
Wind Speed 1 mph (WSW)    
Max Wind Speed 6 mph    
Max Gust Speed -    
Visibility 4 miles    
Events Fog , Snow    
Averages and records for this station are not official NWS values.
T = Trace of Precipitation, MM = Missing Value Source: NWS Daily Summary

Daily Weather History Graph

Daily Weather History Graph

Search for Another Location

Airport or City:

Trip Planner

Search our weather history database for the weather conditions in past years. The results will help you decide how hot, cold, wet, or windy it might be!

Date:

Astronomy

Nov. 12, 2013 Rise Set
Actual Time 9:57 AM AKST 4:40 PM AKST
Civil Twilight 8:57 AM AKST 5:39 PM AKST
Nautical Twilight 7:57 AM AKST 6:39 PM AKST
Astronomical Twilight 7:00 AM AKST 7:36 PM AKST
Moon 3:33 PM AKST 3:15 AM AKST
Length of Visible Light 8h 41m
Length of Day
6h 43m
Waxing Gibbous, 77% of the Moon is Illuminated
Nov 12
Waxing Gibbous
Nov 17
Full
Nov 25
Last Quarter
Dec 2
New
Dec 9
First Quarter

Hourly Weather History & Observations

Time (AKST) Temp. Windchill Dew Point Humidity Pressure Visibility Wind Dir Wind Speed Gust Speed Precip Events Conditions
12:39 AM 18.0 °F - 15.1 °F 88% 30.32 in 10.0 mi Calm Calm - N/A   Overcast
12:53 AM 18.0 °F - 14.0 °F 84% 30.33 in 10.0 mi Calm Calm - N/A   Overcast
1:18 AM 18.0 °F - 15.1 °F 88% 30.31 in 10.0 mi Calm Calm - N/A   Overcast
1:38 AM 18.0 °F - 15.1 °F 88% 30.30 in 10.0 mi Calm Calm - N/A   Overcast
1:53 AM 18.0 °F - 15.1 °F 88% 30.32 in 10.0 mi Calm Calm - N/A   Overcast
3:53 AM 18.0 °F - 15.1 °F 88% 30.29 in 10.0 mi Calm Calm - N/A   Overcast
4:53 AM 18.0 °F - 15.1 °F 88% 30.27 in 10.0 mi Calm Calm - N/A   Overcast
5:00 AM 18.0 °F - 15.1 °F 88% 30.26 in 10.0 mi Calm Calm - N/A   Overcast
5:53 AM 18.0 °F - 16.0 °F 92% 30.26 in 10.0 mi Calm Calm - N/A   Overcast
6:02 AM 18.0 °F - 15.1 °F 88% 30.24 in 7.0 mi Calm Calm - 0.00 in Snow Light Snow
6:53 AM 18.0 °F - 15.1 °F 88% 30.25 in 4.0 mi Calm Calm - 0.00 in Snow Light Snow
7:44 AM 18.0 °F - 15.1 °F 88% 30.21 in 6.0 mi Calm Calm - 0.00 in Snow Light Snow
7:53 AM 18.0 °F - 15.1 °F 88% 30.22 in 8.0 mi Calm Calm - 0.00 in   Overcast
8:53 AM 19.0 °F - 16.0 °F 88% 30.20 in 9.0 mi Calm Calm - 0.00 in Snow Light Snow
9:53 AM 21.9 °F - 19.0 °F 89% 30.18 in 10.0 mi Calm Calm - 0.00 in   Overcast
10:30 AM 23.0 °F 18.4 °F 19.0 °F 85% 30.16 in 8.0 mi Variable 3.5 mph - 0.00 in Snow Light Snow
10:53 AM 23.0 °F 18.4 °F 19.0 °F 85% 30.17 in 10.0 mi SW 3.5 mph - 0.00 in   Overcast
11:53 AM 23.0 °F 18.4 °F 19.0 °F 85% 30.16 in 10.0 mi SSW 3.5 mph - N/A   Overcast
12:42 PM 23.0 °F - 19.0 °F 85% 30.11 in 1.8 mi Calm Calm - 0.00 in Snow Light Snow
12:53 PM 23.0 °F - 19.9 °F 88% 30.12 in 1.5 mi Calm Calm - 0.01 in Snow Light Snow
1:53 PM 23.0 °F - 19.0 °F 85% 30.09 in 1.2 mi Calm Calm - 0.01 in Snow Light Snow
2:53 PM 21.9 °F - 19.0 °F 89% 30.05 in 1.5 mi Calm Calm - 0.01 in Snow Light Snow
3:10 PM 21.9 °F - 19.9 °F 92% 30.03 in 1.2 mi Calm Calm - 0.00 in Snow Light Snow
3:51 PM 21.2 °F - 19.4 °F 93% 30.01 in 1.0 mi Calm Calm - 0.02 in Snow Light Snow
3:53 PM 21.9 °F - 19.0 °F 89% 30.03 in 1.0 mi Calm Calm - 0.02 in Snow Light Snow
3:59 PM 21.9 °F 17.2 °F 18.0 °F 85% 30.01 in 0.8 mi East 3.5 mph - 0.00 in Snow Light Snow
4:44 PM 21.0 °F - 19.0 °F 92% 29.97 in 1.0 mi Calm Calm - 0.03 in Snow Light Snow
4:53 PM 21.0 °F - 19.0 °F 92% 29.99 in 1.2 mi Calm Calm - 0.04 in Snow Light Snow
5:53 PM 21.0 °F - 18.0 °F 88% 29.95 in 1.0 mi Calm Calm - 0.04 in Snow Light Snow
6:50 PM 21.2 °F - 19.4 °F 93% 29.89 in 0.8 mi Calm Calm - 0.04 in Snow Light Snow
6:53 PM 21.0 °F - 19.0 °F 92% 29.90 in 0.8 mi Calm Calm - 0.04 in Snow Light Snow
7:16 PM 21.0 °F - 19.0 °F 92% 29.88 in 1.0 mi Calm Calm - 0.02 in Snow Light Snow
7:39 PM 21.0 °F - 18.0 °F 88% 29.87 in 0.8 mi Calm Calm - 0.04 in Snow Light Snow
7:53 PM 21.0 °F - 18.0 °F 88% 29.87 in 0.5 mi Calm Calm - 0.06 in Fog , Snow Snow
8:06 PM 21.0 °F - 18.0 °F 88% 29.85 in 0.5 mi Calm Calm - 0.02 in Fog , Snow Snow
8:35 PM 21.0 °F - 18.0 °F 88% 29.84 in 1.0 mi Calm Calm - 0.05 in Snow Light Snow
8:53 PM 21.0 °F - 18.0 °F 88% 29.84 in 2.5 mi Calm Calm - 0.05 in Snow Light Snow
9:08 PM 21.0 °F - 18.0 °F 88% 29.83 in 1.2 mi Calm Calm - 0.00 in Snow Light Snow
9:22 PM 21.0 °F - 19.0 °F 92% 29.83 in 2.0 mi Calm Calm - 0.01 in Snow Light Snow
9:50 PM 21.2 °F - 19.4 °F 93% 29.81 in 3.0 mi Calm Calm - 0.02 in   Overcast
9:53 PM 21.9 °F - 19.9 °F 92% 29.82 in 3.0 mi Calm Calm - 0.02 in   Overcast
10:13 PM 21.9 °F - 19.9 °F 92% 29.81 in 2.5 mi Calm Calm - N/A   Overcast
10:38 PM 23.0 °F 18.4 °F 19.9 °F 88% 29.79 in 2.5 mi WSW 3.5 mph - 0.01 in   Overcast
10:45 PM 23.0 °F 18.4 °F 21.0 °F 92% 29.79 in 3.0 mi WSW 3.5 mph - 0.01 in   Overcast
10:53 PM 23.0 °F 17.0 °F 21.0 °F 92% 29.80 in 3.0 mi WSW 4.6 mph - 0.01 in   Overcast
11:11 PM 23.0 °F 17.0 °F 21.0 °F 92% 29.78 in 3.0 mi West 4.6 mph - N/A   Overcast
11:48 PM 23.0 °F 17.0 °F 21.2 °F 93% 29.77 in 2.5 mi WSW 4.6 mph - N/A   Overcast
11:53 PM 23.0 °F 15.8 °F 21.9 °F 96% 29.79 in 2.5 mi WSW 5.8 mph - N/A   Overcast